Regional Weather Roundup
Issued by NWS

Home | Current Version | Previous Version | Graphics & Text | Print | Product List | Glossary On
Versions: 1 2 3 4 5 6 7 8 9 10 11 12 13 14 15 16 17 18 19 20 21 22 23 24 25 26 27 28 29 30 31 32 33 34 35 36 37 38 39 40 41 42 43 44 45 46 47 48 49 50
000
ASUS44 KMEG 230610
RWRTN
TENNESSEE HOURLY STATE WEATHER ROUNDUP
NATIONAL WEATHER SERVICE MEMPHIS TN
1200 AM CST THU NOV 23 2017

TNZ002-004-019-021-049-052-054-088>092-230700-
WEST TENNESSEE

CITY           SKY/WX    TMP DP  RH WIND       PRES   REMARKS
MEMPHIS INTL   CLEAR     33  25  72 N6        30.24R WCI  28
NWS MEMPHIS      N/A     30 N/A N/A MISG        N/A
JACKSON        CLEAR     28  23  81 CALM      30.24S
DYERSBURG      CLEAR     28  25  88 CALM      30.26S
SOMERVILLE     CLEAR     28  25  86 CALM      30.20F
COVINGTON      CLEAR     25  23  93 NW5       30.25S WCI  19
UNION CITY     CLEAR     23  19  86 CALM      30.25S
BOLIVAR        CLEAR     27  25  93 CALM      30.21S
PARIS          CLEAR     27  23  86 CALM      30.22F
HUNTINGDON     CLEAR     28  25  86 NW3       30.22S
LEXINGTON      CLEAR     28  23  80 E3        30.20F
SELMER         CLEAR     27  25  93 N5        30.20F WCI  21
SAVANNAH       CLEAR     28  27  93 CALM      30.19F FOG
$$

TNZ008-025-027-028-033-062-065-066-230700-
NORTH MIDDLE TENNESSEE

CITY           SKY/WX    TMP DP  RH WIND       PRES   REMARKS
NASHVILLE      CLEAR     31  24  75 S3        30.20F
PORTLAND       CLEAR     27  23  86 CALM      30.19F
CLARKSVILLE    CLOUDY    26  20  77 NW6       30.23F WCI  19
SMYRNA         CLEAR     29  25  85 CALM      30.21F
COOKEVILLE     CLEAR     25  23  93 CALM      30.18F
GALLATIN       CLEAR     28  23  80 CALM      30.22F
CROSSVILLE     CLEAR     30  22  72 N3        30.15F
$$

TNZ061-075-076-078-094-096-097-230700-
SOUTH MIDDLE TENNESSEE

CITY           SKY/WX    TMP DP  RH WIND       PRES   REMARKS
FAYETTEVILLE   CLEAR     34  25  69 N8        30.17F WCI  27
TULLAHOMA      CLEAR     32  23  69 CALM      30.17F
WINCHESTER     CLEAR     25  21  86 CALM      30.18F
MCMINNVILLE    CLEAR     27  25  93 CALM      30.19F
COLUMBIA       CLEAR     28  23  80 CALM      30.18F
SHELBYVILLE    CLEAR     30  25  80 N5        30.20F WCI  25
$$

TNZ017-018-042-046-047-230700-
NORTHEAST TENNESSEE

CITY           SKY/WX    TMP DP  RH WIND       PRES   REMARKS
TRI CITIES     CLOUDY    28  25  88 CALM      30.16F
ELIZABETHTON   CLEAR     28  25  86 CALM      30.16F
$$

TNZ012-013-036-069-073-074-230700-
CENTRAL EAST TENNESSEE

CITY           SKY/WX    TMP DP  RH WIND       PRES   REMARKS
KNOXVILLE      CLEAR     36  29  75 NE7       30.15F WCI  30
OAK RIDGE      CLEAR     33  27  78 CALM      30.18F
DOWNTOWN KNOXV   N/A     32  30  93 SE3       30.18S
GATLINBURG     MOCLDY    30  28  93 CALM      30.16S
MORRISTOWN     CLEAR     36  25  64 NE5       30.15F WCI  32
JACKSBORO      CLEAR     28  27  93 CALM      30.21F
$$

TNZ083-085-099-230700-
SOUTHEAST TENNESSEE

CITY           SKY/WX    TMP DP  RH WIND       PRES   REMARKS
CHATTANOOGA    CLEAR     36  28  73 CALM      30.16F
DAYTON         CLEAR     30  28  93 CALM      30.16F
$$

SKY/WX REPORTED AS FAIR MEANS FEW OR NO CLOUDS BELOW
12 THOUSAND FEET.





USA.gov is the U.S. government's official web portal to all federal, state and local government web resources and services.